Powrót do katalogu

COSMOS 680

AktywnyMilitariaLEO
NORAD 7438·PAYLOAD·🇷🇺 Russia

Wystrzelony Sep 19, 1974 z Plesetsk Cosmodrome

Loading…

Następne Przeloty (najbliższe 24 godziny)

TLE

ŚwieżeSource: Space-Track

Epoka: Sep 14, 2026, 06:54 UTC

1 07438U 74072D   26257.28817910 -.00000008  00000-0  51146-4 0  9990
2 07438  74.0389  10.6462 0016238 335.8112  51.6539 12.46645685365793

Śledź COSMOS 680 w czasie rzeczywistym z AllMySat

Download on the App Store